sat.trackr.live / text

‹ back to catalog

KAKUSHIN RISING OBJECT H

NORAD 68799 · 2026-088H

PAYLOAD ACTIVE UNKNOWN

§ Identity

Operator
Country
JPN
Launch date
2026-04-23
Launch site
RLLB
Launch vehicle
Mass (kg)
RCS (m²)

External: N2YO · Heavens-Above · Gunter

§ Orbital elements

Epoch: 2026-05-25T04:46:27.273792Z

Period
95.45 min
Inclination
97.5026°
Eccentricity
0.0020004
Mean motion
15.08599292 rev/d
Perigee alt
526.6 km
Apogee alt
554.3 km
Semi-major
6,918.6 km
B*
2.3049e-4
RAAN
295.1321°
Arg perigee
155.8725°
Mean anomaly
204.3445°
Rev number
483

§ Raw data

KAKUSHIN RISING OBJECT H1 68799U 26088H   26145.19892678  .00003557  00000+0  23049-3 0  99912 68799  97.5026 295.1321 0020004 155.8725 204.3445 15.08599292  4839

JSON: /api/v1/satellites/68799 · /tle

For live sub-satellite position, see the globe view (requires WebGL).

§ Visibility from observer

Set your observer location to see the next 7 days of passes ≥ 10°. The values pass through the URL so the page stays shareable.

No JS? Fill the form by hand. The geolocation button needs JavaScript.